Regional Weather Roundup
Issued by NWS Newport/Morehead, NC

Current Version | Previous Version | Text Only | Print | Product List | Glossary On
Versions: 1 2 3 4 5 6 7 8 9 10 11 12 13 14 15 16 17 18 19 20 21 22 23 24 25 26 27 28 29 30 31 32 33 34 35 36 37 38 39 40 41 42 43 44 45 46 47 48 49 50
000 ASUS42 KMHX 271113 RWRMHX WEATHER ROUNDUP FOR EASTERN NORTH CAROLINA NATIONAL WEATHER SERVICE NEWPORT/MOREHEAD CITY NC 700 AM EDT WED JUL 27 2016 NOTE: "FAIR" INDICATES FEW OR NO CLOUDS BELOW 12,000 FEET WITH NO SIGNIFICANT WEATHER AND/OR OBSTRUCTIONS TO VISIBILITY NCZ015>017-031-032-045>047-102-103-271200- NORTH COAST CITY SKY/WX TMP DP RH WIND PRES REMARKS EDENTON PTCLDY N/A N/A N/A CALM 29.97R ELIZABETH CITY PTCLDY 76 74 93 CALM 29.95R KITTY HAWK CLOUDY 81 76 85 CALM 29.94R MANTEO N/A 80 79 96 NW5 29.96R $$ NCZ045>047-081-094-103-104-271200- CENTRAL COAST CITY SKY/WX TMP DP RH WIND PRES REMARKS FRISCO CLOUDY 82 77 84 SW8 29.96R $$ NCZ095-097-098-100-101-271200- SOUTHERN COAST CITY SKY/WX TMP DP RH WIND PRES REMARKS BEAUFORT PTCLDY 82 76 81 W13 29.97S CEDAR ISLAND NOT AVBL JACKSONVILLE CLEAR 78 73 84 SW6 29.97S PINEY ISLAND SUNNY N/A N/A N/A SW8 29.96 WILMINGTON MOCLDY 81 74 79 SW12 29.99S $$ NCZ011>013-027>030-043-044-078>080-089-090>093-098-271200- COASTAL PLAIN CITY SKY/WX TMP DP RH WIND PRES REMARKS AHOSKIE CLOUDY 73 72 98 CALM 29.97S FOG CLINTON CLEAR 78 76 95 CALM 29.98S ELIZABETHTOWN CLEAR 78 75 90 SW5 29.99S GOLDSBORO CLEAR 79 79 100 SW5 29.95S GREENVILLE CLOUDY 81 77 89 SW7 29.97S HAVELOCK CLEAR 78 74 87 SW9 29.98S KENANSVILLE NOT AVBL KINSTON CLOUDY 79 75 89 SW5 29.97S NEW BERN PTCLDY 77 74 90 SW6 29.98S RICHLANDS PTCLDY 76 75 97 SW3 29.99R ROCKY MOUNT PTCLDY 77 77 100 S3 29.96R WASHINGTON PTCLDY 79 75 88 SW7 29.95S WHITEVILLE CLEAR 78 74 86 SW3 29.99R $$ AMZ130-135-150-152-154-156-158-170-250-252-270-ANZ085-086-088-633-658-670-271200- MARINE OBSERVATIONS STATION/POSITION TIME TEMP WIND PRES WAVE SWELL AIR SEA DIR/SP/G HT/PER HT/PER (UTC) (F) (DEG/KT/KT) (MB) (FT/S) (FT/S) CHESAPEAKE LIGHT NOT AVBL 64 E VA BEACH 1050 80 80 220/ 2/ 2 1013.4 3/ 6 3/ 6 DUCK 1000 81 64 330/ 6/ 7 1013.2 2 E DUCK 1011 66 N/A 1/ 6 OREGON INLET 1000 81 85 280/ 9/ 12 1014.0 13E OREGON INLT 1100 81 N/A 3/ 5 2/ 5 HATTERAS CG 1000 80 83 230/ 7/ 11 1013.9 DIAMOND BUOY 1050 84 84 250/ 16/ 19 1014.5 4/ 6 CAPE LOOKOUT 1100 83 250/ 14/ 20 1014.8 BEAUFORT LAB 1000 82 83 230/ 6/ 15 1014.2 30 SE NEW RVR IN 1008 84 84 240/ 17/ 23 1015.2 30 SE NEW RVR IN 1055 84 N/A 4/ 5 27 SE WRIGHTSVLE 1008 84 84 240/ 16/ 19 1015.8 5 SE WRIGHTSVLE 1008 81 80 250/ 10/ 14 1016.4 225 S CAPE HAT 1050 84 84 260/ 14/ 16 1017.5 3/ 4 2/ 7 41 SE CHARLESTON 1050 85 86 260/ 14/ 17 1016.4 4/ 5 2/ 8 $$

USA.gov is the U.S. government's official web portal to all federal, state and local government web resources and services.